TimeEDT,TemperatureF,Dew PointF,Humidity,Sea Level PressureIn,VisibilityMPH,Wind Direction,Wind SpeedMPH,Gust SpeedMPH,PrecipitationIn,Events,Conditions,WindDirDegrees,DateUTC
12:58 AM,61.3,55.6,81,30.19,10.0,North,4.6,-,N/A,,Clear,10,2013-08-17 04:58:00
1:58 AM,61.0,55.0,81,30.20,10.0,Calm,Calm,-,N/A,,Clear,0,2013-08-17 05:58:00
2:58 AM,60.1,54.5,82,30.19,10.0,Calm,Calm,-,N/A,,Scattered Clouds,0,2013-08-17 06:58:00
3:28 AM,59.0,53.6,82,30.19,8.0,Calm,Calm,-,N/A,,Scattered Clouds,0,2013-08-17 07:28:00
3:38 AM,59.0,53.6,82,30.19,9.0,Calm,Calm,-,N/A,,Scattered Clouds,0,2013-08-17 07:38:00
3:58 AM,59.0,54.0,83,30.19,10.0,Calm,Calm,-,N/A,,Partly Cloudy,0,2013-08-17 07:58:00
4:08 AM,59.0,53.6,82,30.19,8.0,Calm,Calm,-,N/A,,Clear,0,2013-08-17 08:08:00
4:18 AM,59.0,53.6,82,30.19,10.0,Calm,Calm,-,N/A,,Clear,0,2013-08-17 08:18:00
4:28 AM,59.0,53.6,82,30.19,6.0,Calm,Calm,-,N/A,,Haze,0,2013-08-17 08:28:00
4:34 AM,59.0,53.6,82,30.19,7.0,Calm,Calm,-,N/A,,Mostly Cloudy,0,2013-08-17 08:34:00
4:58 AM,59.2,53.8,82,30.20,10.0,Calm,Calm,-,N/A,,Mostly Cloudy,0,2013-08-17 08:58:00
5:58 AM,58.1,53.6,85,30.19,10.0,Variable,1.2,-,N/A,,Clear,0,2013-08-17 09:58:00
6:58 AM,58.3,53.6,84,30.20,10.0,North,3.5,-,N/A,,Clear,10,2013-08-17 10:58:00
7:58 AM,58.8,54.3,85,30.20,10.0,North,3.5,-,N/A,,Clear,10,2013-08-17 11:58:00
8:58 AM,61.3,55.9,82,30.22,10.0,NNE,5.8,-,N/A,,Clear,30,2013-08-17 12:58:00
9:58 AM,65.3,57.4,76,30.22,10.0,NNE,5.8,-,N/A,,Clear,30,2013-08-17 13:58:00
10:47 AM,71.6,59.0,64,30.21,10.0,NE,4.6,-,N/A,,Scattered Clouds,40,2013-08-17 14:47:00
10:58 AM,71.4,59.9,67,30.21,10.0,ENE,6.9,-,0.00,,Light Drizzle,70,2013-08-17 14:58:00
10:59 AM,71.6,59.0,64,30.21,10.0,ENE,8.1,-,N/A,,Scattered Clouds,60,2013-08-17 14:59:00
11:58 AM,74.1,59.7,61,30.21,10.0,ENE,6.9,-,N/A,,Scattered Clouds,60,2013-08-17 15:58:00
12:58 PM,77.2,58.1,52,30.20,10.0,ENE,9.2,-,N/A,,Clear,70,2013-08-17 16:58:00
1:58 PM,78.1,57.6,49,30.19,10.0,ENE,5.8,-,N/A,,Scattered Clouds,70,2013-08-17 17:58:00
2:58 PM,78.6,57.0,47,30.18,10.0,East,11.5,-,N/A,,Partly Cloudy,90,2013-08-17 18:58:00
3:17 PM,80.6,57.2,45,30.19,10.0,East,8.1,-,N/A,,Scattered Clouds,90,2013-08-17 19:17:00
3:58 PM,81.0,57.0,44,30.16,10.0,Variable,5.8,-,N/A,,Partly Cloudy,0,2013-08-17 19:58:00
4:58 PM,80.2,55.9,43,30.16,10.0,East,9.2,-,N/A,,Partly Cloudy,90,2013-08-17 20:58:00
5:58 PM,80.4,57.4,45,30.16,10.0,ENE,5.8,-,N/A,,Scattered Clouds,60,2013-08-17 21:58:00
6:58 PM,78.4,58.3,50,30.16,10.0,ESE,8.1,-,N/A,,Scattered Clouds,120,2013-08-17 22:58:00
7:58 PM,76.3,60.3,57,30.16,10.0,East,4.6,-,N/A,,Scattered Clouds,90,2013-08-17 23:58:00
8:58 PM,70.3,60.8,72,30.16,10.0,North,3.5,-,N/A,,Clear,10,2013-08-18 00:58:00
9:58 PM,68.0,60.6,77,30.16,8.0,Calm,Calm,-,N/A,,Clear,0,2013-08-18 01:58:00
10:58 PM,67.8,61.5,80,30.16,10.0,Calm,Calm,-,N/A,,Clear,0,2013-08-18 02:58:00
11:48 PM,66.2,59.0,78,30.17,9.0,Calm,Calm,-,N/A,,Clear,0,2013-08-18 03:48:00
11:58 PM,65.1,59.7,83,30.17,10.0,Calm,Calm,-,N/A,,Clear,0,2013-08-18 03:58:00